Szeged, Hungary

12:08 AM CET on February 11, 2016 (GMT +0100)
Szeged

Weather History for LHUD - May, 2014

Change the Weather History Date:

Monday, May 26, 2014

  Actual Average (LRAR) Record (LRAR)
Temperature  
Mean Temperature 70 °F -  
Max Temperature 83 °F 77 °F 86 °F (2002)
Min Temperature 57 °F 55 °F 39 °F (1997)
Cooling Degree Days 5    
Growing Degree Days 20 (Base 50)    
Moisture  
Dew Point 57 °F    
Average Humidity 66    
Maximum Humidity 94    
Minimum Humidity 27    
Precipitation  
Precipitation 0.79 in 0.09 in - ()
Sea Level Pressure  
Sea Level Pressure 29.92 in    
Wind  
Wind Speed 4 mph ()    
Max Wind Speed 18 mph    
Max Gust Speed 32 mph    
Visibility 9.8 miles    
Events Rain , Thunderstorm    
Averages and records for this station are not official NWS values.
T = Trace of Precipitation, MM = Missing Value Source: Averaged Metar Reports

Daily Weather History Graph

Daily Weather History Graph

Search for Another Location

Airport or City:

Trip Planner

Search our weather history database for the weather conditions in past years. The results will help you decide how hot, cold, wet, or windy it might be!

Date:

Astronomy

May. 26, 2014 Rise Set
Actual Time 4:55 AM CEST 8:17 PM CEST
Civil Twilight 4:19 AM CEST 8:54 PM CEST
Nautical Twilight 3:30 AM CEST 9:43 PM CEST
Astronomical Twilight 2:29 AM CEST 10:45 PM CEST
Moon 3:36 AM CEST (5/26) 5:53 PM CEST (5/26)
Length of Visible Light 16h 35m
Length of Day
15h 22m
Waning Crescent, 6% of the Moon is Illuminated
May 26
Waning Crescent
May 28
New
Jun 5
First Quarter
Jun 13
Full
Jun 19
Last Quarter

Hourly Weather History & Observations

Time (CEST) Temp. Heat Index Dew Point Humidity Pressure Visibility Wind Dir Wind Speed Gust Speed Precip Events Conditions
12:00 AM 61 °F - 57 °F 81% 30.02 in 19 mi WSW 2.2 mph - -   Partly Cloudy
12:45 AM 59.0 °F - 55.4 °F 88% 30.01 in - NW 5.8 mph - N/A   Clear
1:00 AM 59 °F - 56 °F 85% 30.01 in 17 mi NW 4.5 mph - -   Partly Cloudy
1:45 AM 59.0 °F - 55.4 °F 88% 30.01 in - NNW 2.3 mph - N/A   Clear
2:00 AM 59 °F - 56 °F 87% 30.01 in 12 mi NNW 2.2 mph - -   Partly Cloudy
2:15 AM 59.0 °F - 57.2 °F 94% 30.01 in - NNW 2.3 mph - N/A   Clear
2:45 AM 60.8 °F - 57.2 °F 88% 30.01 in - NNW 2.3 mph - N/A   Clear
3:00 AM 60 °F - 57 °F 87% 30.01 in 12 mi NNW 2.2 mph - -   Partly Cloudy
3:15 AM 60.8 °F - 57.2 °F 88% 30.01 in - West 2.3 mph - N/A   Clear
3:45 AM 59.0 °F - 55.4 °F 88% 30.01 in - NNW 2.3 mph - N/A   Clear
4:00 AM 59 °F - 56 °F 85% 29.99 in 9 mi NNW 2.2 mph - -   Partly Cloudy
4:45 AM 57.2 °F - 55.4 °F 94% 29.98 in - North 3.5 mph - N/A   Clear
5:00 AM 57 °F - 55 °F 89% 29.98 in 16 mi North 4.5 mph - -   Partly Cloudy
5:45 AM 59.0 °F - 55.4 °F 88% 29.98 in - North 2.3 mph - N/A   Clear
6:00 AM 58 °F - 55 °F 87% 29.98 in 16 mi North 2.2 mph - -   Partly Cloudy
6:15 AM 59.0 °F - 57.2 °F 94% 29.98 in - NW 3.5 mph - N/A   Clear
7:00 AM 60 °F - 57 °F 85% 29.98 in 19 mi WNW 2.2 mph - -   Partly Cloudy
7:15 AM 62.6 °F - 57.2 °F 82% 29.98 in - North 1.2 mph - N/A   Clear
7:45 AM 64.4 °F - 59.0 °F 83% 29.98 in - NNW 1.2 mph - N/A   Clear
8:00 AM 64 °F - 59 °F 78% 29.98 in 16 mi NNW 2.2 mph - -   Partly Cloudy
8:15 AM 66.2 °F - 60.8 °F 83% 29.98 in - NNW 2.3 mph - N/A   Clear
8:45 AM 71.6 °F - 59.0 °F 64% 29.98 in - North 2.3 mph - N/A   Clear
9:00 AM 71 °F - 60 °F 59% 29.97 in 16 mi North 2.2 mph - -   Partly Cloudy
9:45 AM 73.4 °F - 60.8 °F 65% 29.98 in - NE 2.3 mph - N/A   Clear
10:00 AM 73 °F - 60 °F 54% 29.96 in 19 mi NE 2.2 mph - -   Partly Cloudy
10:15 AM 75.2 °F - 59.0 °F 57% 29.98 in - ESE 4.6 mph - N/A   Clear
10:45 AM 75.2 °F - 57.2 °F 53% 29.98 in 6.2 mi South 3.5 mph - N/A   Scattered Clouds
11:00 AM 75 °F - 57 °F 43% 29.96 in 19 mi South 2.2 mph - -   Partly Cloudy
11:15 AM 77.0 °F - 57.2 °F 50% 29.98 in 6.2 mi NE 5.8 mph - N/A   Scattered Clouds
11:45 AM 77.0 °F - 59.0 °F 54% 29.95 in 6.2 mi SE 3.5 mph - N/A   Partly Cloudy
12:00 PM 77 °F - 58 °F 42% 29.95 in 19 mi SE 4.5 mph - -   Partly Cloudy
12:15 PM 77.0 °F - 57.2 °F 50% 29.95 in 6.2 mi SE 4.6 mph - N/A   Partly Cloudy
12:45 PM 80.6 °F 80.8 °F 57.2 °F 45% 29.95 in 6.2 mi WSW 3.5 mph - N/A   Scattered Clouds
1:00 PM 80 °F - 57 °F 35% 29.93 in 19 mi WSW 4.5 mph - -   Partly Cloudy
1:15 PM 78.8 °F - 59.0 °F 51% 29.92 in 6.2 mi SSW 4.6 mph - N/A   Partly Cloudy
1:45 PM 80.6 °F 81.1 °F 59.0 °F 48% 29.92 in 6.2 mi South 2.3 mph - N/A   Partly Cloudy
2:00 PM 80 °F - 58 °F 37% 29.90 in 19 mi South 2.2 mph - -   Partly Cloudy
2:15 PM 80.6 °F 81.1 °F 59.0 °F 48% 29.89 in 6.2 mi ESE 2.3 mph - N/A   Partly Cloudy
2:45 PM 82.4 °F 82.0 °F 57.2 °F 42% 29.89 in 6.2 mi SW 4.6 mph - N/A   Partly Cloudy
3:00 PM 82 °F - 57 °F 32% 29.86 in 25 mi SW 4.5 mph - -   Partly Cloudy
3:15 PM 82.4 °F 82.0 °F 57.2 °F 42% 29.89 in 6.2 mi NW 2.3 mph - N/A   Partly Cloudy
3:45 PM 82.4 °F 81.7 °F 55.4 °F 39% 29.86 in 6.2 mi SW 3.5 mph - N/A   Partly Cloudy
4:00 PM 83 °F - 54 °F 27% 29.85 in 25 mi SW 2.2 mph - -   Partly Cloudy
4:15 PM 82.4 °F 82.0 °F 57.2 °F 42% 29.86 in 6.2 mi NNW 5.8 mph - N/A   Scattered Clouds
4:45 PM 80.6 °F 80.8 °F 57.2 °F 45% 29.86 in 6.2 mi ENE 5.8 mph - N/A Thunderstorm Thunderstorm
4:49 PM 82.4 °F 81.7 °F 55.4 °F 39% 29.83 in 6.2 mi NE 5.8 mph - N/A Thunderstorm Thunderstorm
4:56 PM 82.4 °F 81.7 °F 55.4 °F 39% 29.83 in - NE 6.9 mph - N/A   Unknown
5:00 PM 81 °F - 56 °F 32% 29.83 in 11 mi ENE 6.7 mph - - Thunderstorm Thunderstorm
5:15 PM 80.6 °F 80.5 °F 55.4 °F 42% 29.86 in 6.2 mi ENE 5.8 mph - N/A Thunderstorm Thunderstorm
5:45 PM 77.0 °F - 55.4 °F 47% 29.86 in 6.2 mi NE 9.2 mph - N/A Thunderstorm Thunderstorm
6:00 PM 77 °F - 55 °F 36% 29.83 in 7 mi NE 8.9 mph - - Thunderstorm Thunderstorm
6:11 PM 71.6 °F - 57.2 °F 60% 29.86 in 0.9 mi WNW 12.7 mph - N/A Rain , Thunderstorm Thunderstorms and Rain
6:15 PM 71.6 °F - 57.2 °F 60% 29.86 in 1.4 mi WNW 12.7 mph - N/A Rain , Thunderstorm Thunderstorms and Rain
6:26 PM 66.2 °F - 59.0 °F 78% 29.89 in - WSW 16.1 mph 32.2 mph N/A   Unknown
6:27 PM 66.2 °F - 59.0 °F 78% 29.89 in 0.5 mi WSW 17.3 mph 32.2 mph N/A Rain , Thunderstorm Thunderstorms and Rain
6:29 PM 64.4 °F - 57.2 °F 77% 29.89 in 0.5 mi WSW 18.4 mph 32.2 mph N/A Rain , Thunderstorm Heavy Thunderstorms and Rain
6:45 PM 64.4 °F - 55.4 °F 73% 29.89 in 1.9 mi SSW 6.9 mph - N/A Rain , Thunderstorm Heavy Thunderstorms and Rain
7:00 PM 65 °F - 56 °F 64% 29.89 in 2 mi SSW 6.7 mph - - Rain , Thunderstorm Heavy Thunderstorms and Rain
7:45 PM 62.6 °F - 57.2 °F 82% 29.86 in 6.2 mi South 3.5 mph - N/A Rain , Thunderstorm Thunderstorms and Rain
8:00 PM 63 °F - 57 °F 76% 29.84 in 19 mi South 4.5 mph - - Rain , Thunderstorm Thunderstorms and Rain
8:15 PM 62.6 °F - 59.0 °F 88% 29.83 in 6.2 mi SE 3.5 mph - N/A Rain Light Rain Showers
8:45 PM 64.4 °F - 59.0 °F 83% 29.86 in 6.2 mi South 1.2 mph - N/A Rain Light Rain Showers
9:00 PM 64 °F - 60 °F 81% 29.84 in 19 mi South 2.2 mph - - Rain Light Rain Showers
9:15 PM 64.4 °F - 59.0 °F 83% 29.86 in 6.2 mi West 9.2 mph - N/A Rain Light Rain Showers
9:45 PM 64.4 °F - 59.0 °F 83% 29.86 in 6.2 mi WSW 5.8 mph - N/A   Scattered Clouds
10:00 PM 64 °F - 59 °F 78% 29.87 in 19 mi WSW 6.7 mph - - Rain Light Rain Showers
10:45 PM 64.4 °F - 60.8 °F 88% 29.86 in 6.2 mi SE 2.3 mph - N/A   Scattered Clouds
11:00 PM 64 °F - 60 °F 84% 29.85 in 19 mi SE 2.2 mph - -   Scattered Clouds
11:45 PM 62.6 °F - 59.0 °F 88% 29.86 in 6.2 mi ESE 1.2 mph - N/A   Scattered Clouds